sat.trackr.live / text

‹ back to catalog

STARLINK-5599

NORAD 55766 · 2023-028AB

PAYLOAD ACTIVE UNKNOWN

§ Identity

Operator
Country
US
Launch date
2023-03-03
Launch site
AFWTR
Launch vehicle
Mass (kg)
RCS (m²)

Purposes: comms

External: N2YO · Heavens-Above · Gunter

§ Orbital elements

Epoch: 2026-09-20T23:12:54.378720Z

Period
96.11 min
Inclination
69.9981°
Eccentricity
0.0002617
Mean motion
14.98324951 rev/d
Perigee alt
570.3 km
Apogee alt
573.9 km
Semi-major
6,950.2 km
B*
3.0041e-5
RAAN
92.0998°
Arg perigee
273.9881°
Mean anomaly
86.0979°
Rev number
19,578

§ Raw data

STARLINK-55991 55766U 23028AB  26263.96729605  .00000265  00000+0  30041-4 0  99912 55766  69.9981  92.0998 0002617 273.9881  86.0979 14.98324951195789

JSON: /api/v1/satellites/55766 · /tle

For live sub-satellite position, see the globe view (requires WebGL).

§ Visibility from observer

Set your observer location to see the next 7 days of passes ≥ 10°. The values pass through the URL so the page stays shareable.

No JS? Fill the form by hand. The geolocation button needs JavaScript.